Location: Three Guys Observatory
(38.6418°N, 87.1521°W)
Time: 01:11:40
(UTC-04:00)

ISS - Visible Passes

Search period start: 23 October 2014 00:00
Search period end: 02 November 2014 00:00
Orbit: 413 x 416 km, 51.6° (Epoch: 22 October)

Date Brightness Start Highest point End Pass type
(mag) Time Alt. Az. Time Alt. Az. Time Alt. Az.
23 Oct -2.6 20:27:57 10° NW 20:30:55 40° NNE 20:30:55 40° NNE visible
24 Oct -2.0 19:39:01 10° NNW 19:41:54 26° NNE 19:44:05 14° E visible
24 Oct -0.7 21:15:32 10° WNW 21:16:58 21° W 21:16:58 21° W visible
25 Oct -3.1 20:26:12 10° NW 20:29:32 71° SW 20:30:15 49° SSE visible
26 Oct -3.2 19:37:00 10° NW 19:40:19 62° NE 19:43:37 10° ESE visible
26 Oct -0.2 21:15:05 10° W 21:16:37 13° SW 21:16:37 13° SW visible
27 Oct -1.0 20:24:51 10° WNW 20:27:33 23° SW 20:30:14 10° S visible
28 Oct -2.0 19:35:12 10° WNW 19:38:23 43° SW 19:41:32 10° SSE visible
30 Oct -0.2 19:34:06 10° W 19:36:04 15° SW 19:38:03 10° SSW visible
